Location: Brno
(49.2000°N, 16.6330°E)
Time: 09:43:08
(UTC+02:00)

Vanguard 3 - Pass Details

Date: 27 July 2021
Orbit: 510 x 3260 km, 33.3° (Epoch: 18 September)

Event Time Altitude Azimuth Distance (km) Brightness Sun altitude
Rises 01:23:08 0° 273° (W) 7,231 12.0 -21.4°
Reaches altitude 10° 01:29:01 10° 265° (W) 6,142 11.5 -21.3°
Maximum altitude 01:43:40 30° 215° (SW) 4,069 10.1 -20.9°
Enters shadow 01:47:24 27° 194° (SSW) 3,964 10.0 -20.8°
